sat.trackr.live / text

‹ back to catalog

STARLINK-5550

NORAD 56361 · 2023-058AW

PAYLOAD ACTIVE UNKNOWN

§ Identity

Operator
Country
US
Launch date
2023-04-27
Launch site
AFWTR
Launch vehicle
Mass (kg)
RCS (m²)

Purposes: comms

External: N2YO · Heavens-Above · Gunter

§ Orbital elements

Epoch: 2026-05-24T23:17:39.611904Z

Period
95.64 min
Inclination
97.4460°
Eccentricity
0.0002168
Mean motion
15.05652565 rev/d
Perigee alt
548.0 km
Apogee alt
551.0 km
Semi-major
6,927.6 km
B*
-1.6910e-5
RAAN
144.9622°
Arg perigee
73.3555°
Mean anomaly
286.7910°
Rev number
16,960

§ Raw data

STARLINK-55501 56361U 23058AW  26144.97059736 -.00000303  00000+0 -16910-4 0  99902 56361  97.4460 144.9622 0002168  73.3555 286.7910 15.05652565169601

JSON: /api/v1/satellites/56361 · /tle

For live sub-satellite position, see the globe view (requires WebGL).

§ Visibility from observer

Set your observer location to see the next 7 days of passes ≥ 10°. The values pass through the URL so the page stays shareable.

No JS? Fill the form by hand. The geolocation button needs JavaScript.